• Join FlightAware (Why Join?)
  • Login
  • US Flag 
08:12PM EDT


 

Airport Tracker/Info


-or-


 

Live Flight TrackerFlight Track Log ✈ JZA8279 ✈ 06-May-2013 ✈ CYPR - CYVR

Flight Track Log - Related Links

Times and Time Zones

All times are in EDT time to prevent confusion due to time zone crossing. See the JZA8279 flight status page for this flight to view local times or setup timezone preferences in your user account.

Time Position Orientation Groundspeed Altitude Reporting Facility
EDT Latitude Longitude Course Direction KTS MPH feet Rate Location/Type
01:42PM 54.2667 -130.4667 135° Southeast 140 161 1,100  Level Vancouver Center
01:45PM 54.1830 -130.2826 130° Southeast  Level FlightAware Approximate
01:46PM 54.1333 -130.2333 130° Southeast 200 230 5,700  Level Vancouver Center
01:47PM 53.9480 -129.8892 135° Southeast  Level FlightAware Approximate
01:47PM 54.0833 -130.1667 142° Southeast 190 219 6,800  Level Vancouver Center
01:49PM 54.0024 -129.9711 133° Southeast  Level FlightAware Approximate
01:50PM 53.9667 -129.9500 135° Southeast 210 242 10,200  Level Vancouver Center
01:52PM 53.8775 -129.7716 130° Southeast  Level FlightAware Approximate
01:52PM 53.8833 -129.8000 130° Southeast 220 253 12,300  Level Vancouver Center
01:53PM 53.8333 -129.7333 142° Southeast 220 253 13,300 960 Climbing Vancouver Center
01:55PM 53.7500 -129.5833 133° Southeast 220 253 15,200 900 Climbing Vancouver Center
01:56PM 53.6139 -129.3228 135° Southeast  Level FlightAware Approximate
01:56PM 53.7000 -129.5000 135° Southeast 230 265 16,000  Level Vancouver Center
01:57PM 53.6500 -129.4333 142° Southeast 230 265 16,900 780 Climbing Vancouver Center
01:58PM 53.6000 -129.3333 130° Southeast 230 265 17,600 600 Climbing Vancouver Center
01:59PM 53.5500 -129.2833 149° Southeast 240 276 18,200 660 Climbing Vancouver Center
02:00PM 53.5167 -129.1833 119° Southeast 240 276 19,000 720 Climbing Vancouver Center
02:01PM 53.4667 -129.1333 149° Southeast 240 276 19,700 660 Climbing Vancouver Center
02:03PM 53.3823 -128.9504 128° Southeast  Level FlightAware Approximate
02:04PM 53.3167 -128.8833 128° Southeast 230 265 21,800  Level Vancouver Center
02:06PM 53.2296 -128.7006 135° Southeast  Level FlightAware Approximate
02:06PM 53.2500 -128.7333 135° Southeast 230 265 23,000  Level Vancouver Center
02:07PM 53.2000 -128.6833 149° Southeast 240 276 23,000  Level Vancouver Center
02:08PM 53.1333 -128.5833 138° Southeast 250 288 23,000  Level Vancouver Center
02:10PM 53.0333 -128.4333 138° Southeast 260 299 23,000  Level Vancouver Center
02:14PM 52.8333 -128.0833 133° Southeast 260 299 23,000  Level Vancouver Center
02:16PM 52.7382 -127.9185 134° Southeast  Level FlightAware Approximate
02:19PM 52.5667 -127.7000 137° Southeast 260 299 23,000  Level Vancouver Center
02:20PM 52.5167 -127.6167 135° Southeast 260 299 23,000  Level Vancouver Center
02:21PM 52.4667 -127.5333 135° Southeast 260 299 23,000  Level Vancouver Center
02:22PM 52.4167 -127.4333 129° Southeast 260 299 23,000  Level Vancouver Center
02:23PM 52.3412 -127.3023 137° Southeast  Level FlightAware Approximate
02:23PM 52.3500 -127.3500 143° Southeast 260 299 23,000  Level Vancouver Center
02:24PM 52.3167 -127.3000 137° Southeast 260 299 23,000  Level Vancouver Center
02:26PM 52.2167 -127.1167 132° Southeast 260 299 23,000  Level Vancouver Center
02:27PM 52.1500 -127.0333 142° Southeast 260 299 23,000  Level Vancouver Center
02:28PM 52.1000 -126.9833 148° Southeast 260 299 23,000  Level Vancouver Center
02:30PM 52.0130 -126.8572 138° Southeast  Level FlightAware Approximate
02:32PM 51.9000 -126.6667 138° Southeast 260 299 23,000  Level Vancouver Center
02:33PM 51.8500 -126.5833 134° Southeast 250 288 23,000  Level Vancouver Center
02:34PM 51.8000 -126.5000 134° Southeast 250 288 23,000  Level Vancouver Center
02:35PM 51.7333 -126.4167 142° Southeast 250 288 23,000  Level Vancouver Center
02:37PM 51.6669 -126.3622 138° Southeast  Level FlightAware Approximate
02:37PM 51.6333 -126.2667 137° Southeast 260 299 23,000  Level Vancouver Center
02:38PM 51.5833 -126.1833 134° Southeast 260 299 23,000  Level Vancouver Center
02:40PM 51.4949 -126.0645 140° Southeast  Level FlightAware Approximate
02:41PM 51.4167 -125.9667 140° Southeast 260 299 23,000  Level Vancouver Center
02:42PM 51.3667 -125.8833 134° Southeast 260 299 23,000  Level Vancouver Center
02:44PM 51.2775 -125.7663 141° Southeast  Level FlightAware Approximate
02:44PM 51.2667 -125.7500 141° Southeast 260 299 23,000  Level Vancouver Center
02:45PM 51.2167 -125.6667 134° Southeast 250 288 23,000  Level Vancouver Center
02:46PM 51.1667 -125.5833 134° Southeast 260 299 23,000  Level Vancouver Center
02:47PM 51.1000 -125.5000 142° Southeast 250 288 23,000  Level Vancouver Center
02:48PM 51.0500 -125.4500 148° Southeast 250 288 23,000  Level Vancouver Center
02:50PM 50.9593 -125.3369 142° Southeast  Level FlightAware Approximate
02:50PM 50.9500 -125.2833 142° Southeast 260 299 23,000  Level Vancouver Center
02:51PM 50.8833 -125.2000 142° Southeast 250 288 23,000  Level Vancouver Center
02:52PM 50.8333 -125.1500 148° Southeast 250 288 23,000  Level Vancouver Center
02:53PM 50.7833 -125.0667 133° Southeast 250 288 23,000  Level Vancouver Center
02:55PM 50.6833 -124.9000 133° Southeast 250 288 23,000  Level Vancouver Center
02:57PM 50.5667 -124.7667 144° Southeast 250 288 23,000  Level Vancouver Center
02:59PM 50.4632 -124.6709 149° Southeast  Level FlightAware Approximate
02:59PM 50.4667 -124.6333 149° Southeast 250 288 23,000  Level Vancouver Center
03:01PM 50.3478 -124.5633 136° Southeast  Level FlightAware Approximate
03:03PM 50.2500 -124.3500 141° Southeast 250 288 21,000  Level Vancouver Center
03:04PM 50.2000 -124.2667 133° Southeast 250 288 19,900 -1,080 Descending Vancouver Center
03:05PM 50.1500 -124.1833 133° Southeast 260 299 18,900 -1,020 Descending Vancouver Center
03:06PM 50.0833 -124.1333 154° Southeast 250 288 17,900 -960 Descending Vancouver Center
03:08PM 49.9819 -124.0890 140° Southeast  Level FlightAware Approximate
03:08PM 49.9805 -124.0370 149° Southeast  Level FlightAware Approximate
03:09PM 49.9294 -124.0220 141° Southeast  Level FlightAware Approximate
03:09PM 49.9500 -123.9333 149° Southeast 220 253 15,100  Level Vancouver Center
03:10PM 49.9000 -123.8833 147° Southeast 210 242 14,200 -840 Descending Vancouver Center
03:11PM 49.8667 -123.8167 128° Southeast 210 242 13,500 -780 Descending Vancouver Center
03:13PM 49.7667 -123.7167 147° Southeast 200 230 11,900 -840 Descending Vancouver Center
03:14PM 49.7333 -123.6667 136° Southeast 190 219 11,100 -660 Descending Vancouver Center
03:16PM 49.6297 -123.5731 147° Southeast  Level Estimated
03:16PM 49.6000 -123.5667 147° Southeast 270 311 10,000  Level Vancouver Center
03:18PM 49.4995 -123.4661 147° Southeast  Level FlightAware Approximate
03:19PM 49.4000 -123.4167 147° Southeast 270 311 10,000  Level Vancouver Center
03:20PM 49.3333 -123.3667 154° Southeast 270 311 10,000  Level Vancouver Center
03:21PM 49.2833 -123.3167 147° Southeast 270 311 10,000 -300 Level Vancouver Center
03:22PM 49.2500 -123.2167 117° Southeast 260 299 9,400 -900 Descending Vancouver Center
03:23PM 49.2500 -123.1167 90° East 250 288 8,200 -1,560 Descending Vancouver Center
03:25PM 49.1833 -122.9500 121° Southeast 230 265 4,800 -1,620 Descending Vancouver Center
03:28PM 49.1833 -123.1667 270° West 130 150 100 -1,620 Descending Vancouver Center